Flag for Germany

Past Weather in Rietberg, North Rhine-Westphalia, Germany — Yesterday and Last 2 Weeks

Now
54 °F

Partly sunny.


Feels Like: 51 °F
Forecast: 68 / 49 °F
Wind: 8 mph from West

Location: Paderborn / Lippstadt

Current Time: Jul 6, 2020 at 3:26:43 pm

Latest Report: Jul 6, 2020 at 2:20 pm


Visibility: N/A

Pressure: 29.98 "Hg

Humidity: 88%

Dew Point: 50 °F

Location of RietbergLocation

Past Weather in Rietberg — Graph

°F

Rietberg Temperature Yesterday

Maximum temperature yesterday: 73 °F (at 2:20 pm)
Minimum temperature yesterday: 66 °F (at 6:20 am)
Average temperature yesterday: 70 °F

High & Low Weather Summary for the Past Weeks

 TemperatureHumidityPressure
High82 °F (Jun 26, 5:20 pm)100% (Jun 22, 7:50 am)30.30 "Hg (Jun 22, 7:50 am)
Low52 °F (Jul 3, 4:50 am)30% (Jun 24, 3:20 pm)29.74 "Hg (Jul 1, 6:20 am)
Average67 °F63%29.98 "Hg
* Reported Jun 21 1:20 pm — Jul 6 1:50 pm, Rietberg. Weather by CustomWeather, © 2020

Note: Actual official high and low records may vary slightly from our data, if they occured in-between our weather recording intervals... More about our weather records

Rietberg Weather History for the Previous 24 Hours

Scroll right to see more
 ConditionsComfort  
Time TempWeatherWind HumidityBarometerVisibility
1:50 pm
Mon, Jul 6
54 °FRain showers. Overcast.13 mph88%29.98 "Hg5 mi
1:20 pm61 °FRain showers. Partly sunny.17 mph55%29.95 "HgN/A
12:50 pm61 °FScattered clouds.14 mph55%29.95 "HgN/A
12:20 pm63 °FScattered clouds.16 mph59%29.95 "HgN/A
11:50 am61 °FScattered clouds.17 mph55%29.92 "HgN/A
11:20 am59 °FPartly sunny.16 mph63%29.92 "HgN/A
10:50 am59 °FScattered clouds.15 mph63%29.92 "HgN/A
10:20 am59 °FScattered clouds.14 mph68%29.92 "HgN/A
9:50 am59 °FScattered clouds.15 mph68%29.92 "HgN/A
8:50 am57 °FScattered clouds.17 mph67%29.89 "HgN/A
8:20 am57 °FScattered clouds.16 mph67%29.89 "HgN/A
7:50 am57 °FScattered clouds.16 mph72%29.89 "HgN/A
7:20 am55 °FScattered clouds.15 mph77%29.89 "HgN/A
6:50 am55 °FScattered clouds.13 mph77%29.89 "HgN/A
6:20 am55 °FScattered clouds.13 mph72%29.89 "HgN/A
5:20 am57 °FPartly sunny.14 mph67%29.86 "HgN/A
4:50 am57 °FPassing clouds.13 mph67%29.86 "HgN/A
4:20 am57 °FPassing clouds.10 mph67%29.86 "HgN/A
3:50 am57 °FPassing clouds.13 mph67%29.86 "HgN/A
9:50 pm
Sun, Jul 5
68 °FPassing clouds.13 mph69%29.83 "HgN/A
9:20 pm68 °FPartly sunny.13 mph69%29.83 "HgN/A
8:50 pm70 °FScattered clouds.15 mph64%29.83 "HgN/A
8:20 pm70 °FPartly sunny.12 mph69%29.83 "HgN/A
7:50 pm70 °FPartly sunny.13 mph69%29.83 "HgN/A
7:20 pm70 °FLight rain. Scattered clouds.9 mph73%29.83 "HgN/A
6:50 pm70 °FLight rain. Partly sunny.9 mph73%29.86 "HgN/A
5:50 pm72 °FScattered clouds.17 mph69%29.86 "HgN/A
5:20 pm70 °FPartly sunny.17 mph73%29.86 "HgN/A
4:50 pm70 °FScattered clouds.18 mph78%29.86 "HgN/A
4:20 pm70 °FSprinkles. Mostly cloudy.14 mph73%29.86 "HgN/A
3:50 pm70 °FMostly cloudy.15 mph73%29.86 "HgN/A
Weather by CustomWeather, © 2020

See weather overview